"Data set title: Gaging station water sample data. Usage: Event based table used with water chemistry collection from 01-Oct-2018 to 30-Sep-2019",,,,,,,,,,,,
,,,,,,,,,,,,,
"Site","Date","RecNum","SiteID","Flag_SiteID","LOGGERID","PROGID","VNOTCH_INST_0_0_01","Flag_VNOTCH_INST_0_0_01","SAMPLE_INST_0_0_01","Flag_SAMPLE_INST_0_0_01","STAGE_INST_0_0_01","Flag_STAGE_INST_0_0_01"
"","yyyy-MM-dd HH:mm:ss","count","","none","none","none","none","none","count","none","ft","none"
"nominal","datetime","nominal","data","code","nominal","nominal","data","code","data","code","data","code"
"GSWS07_119",2018-10-01 03:27:15,553,107.00,"",119,26561.0,0,"",34,"",0.0340,""
"GSWS07_119",2018-10-01 16:45:15,554,107.00,"",119,26561.0,0,"",35,"",0.0340,""
"GSWS07_119",2018-10-02 06:03:15,555,107.00,"",119,26561.0,0,"",36,"",0.0330,""
"GSWS07_119",2018-10-02 19:21:15,556,107.00,"",119,26561.0,0,"",37,"",0.0330,""
"GSWS07_119",2018-10-03 08:39:15,557,107.00,"",119,26561.0,0,"",38,"",0.0340,""
"GSWS07_119",2018-10-04 05:53:15,0,107.00,"",119,5749.0,0,"",1,"",0.0320,""
"GSWS07_119",2018-10-04 19:11:15,1,107.00,"",119,5749.0,0,"",2,"",0.0320,""
"GSWS07_119",2018-10-05 08:29:15,2,107.00,"",119,5749.0,0,"",3,"",0.0320,""
"GSWS07_119",2018-10-05 21:47:15,3,107.00,"",119,5749.0,0,"",4,"",0.0660,""
"GSWS07_119",2018-10-06 11:05:15,4,107.00,"",119,5749.0,0,"",5,"",0.0490,""
"GSWS07_119",2018-10-07 00:23:15,5,107.00,"",119,5749.0,0,"",6,"",0.0400,""
"GSWS07_119",2018-10-07 13:41:15,6,107.00,"",119,5749.0,0,"",7,"",0.0390,""
"GSWS07_119",2018-10-08 02:59:15,7,107.00,"",119,5749.0,0,"",8,"",0.0380,""
"GSWS07_119",2018-10-08 15:17:45,8,107.00,"",119,5749.0,0,"",9,"",0.0460,""
"GSWS07_119",2018-10-08 16:17:30,9,107.00,"",119,5749.0,0,"",10,"",0.0490,""
"GSWS07_119",2018-10-09 10:35:45,10,107.00,"",119,5749.0,0,"",11,"",0.0450,""
"GSWS07_119",2018-10-09 10:37:15,11,107.00,"",119,5749.0,0,"",12,"",0.0450,""
"GSWS07_119",2018-10-09 10:47:15,12,107.00,"",119,5749.0,0,"",11,"",0.0450,""
"GSWS07_119",2018-10-10 00:05:15,13,107.00,"",119,5749.0,0,"",12,"",0.0400,""
"GSWS07_119",2018-10-10 13:23:15,14,107.00,"",119,5749.0,0,"",13,"",0.0390,""
"GSWS07_119",2018-10-11 02:41:15,15,107.00,"",119,5749.0,0,"",14,"",0.0390,""
"GSWS07_119",2018-10-11 15:59:15,16,107.00,"",119,5749.0,0,"",15,"",0.0370,""
"GSWS07_119",2018-10-12 05:17:15,17,107.00,"",119,5749.0,0,"",16,"",0.0370,""
"GSWS07_119",2018-10-12 18:35:15,18,107.00,"",119,5749.0,0,"",17,"",0.0370,""
"GSWS07_119",2018-10-13 07:53:15,19,107.00,"",119,5749.0,0,"",18,"",0.0370,""
"GSWS07_119",2018-10-13 21:11:15,20,107.00,"",119,5749.0,0,"",19,"",0.0350,""
"GSWS07_119",2018-10-14 10:29:15,21,107.00,"",119,5749.0,0,"",20,"",0.0370,""
"GSWS07_119",2018-10-14 23:47:15,22,107.00,"",119,5749.0,0,"",21,"",0.0360,""
"GSWS07_119",2018-10-15 13:05:15,23,107.00,"",119,5749.0,0,"",22,"",0.0360,""
"GSWS07_119",2018-10-16 02:23:15,24,107.00,"",119,5749.0,0,"",23,"",0.0350,""
"GSWS07_119",2018-10-16 15:41:15,25,107.00,"",119,5749.0,0,"",24,"",0.0350,""
"GSWS07_119",2018-10-17 04:59:15,26,107.00,"",119,5749.0,0,"",25,"",0.0350,""
"GSWS07_119",2018-10-17 18:17:15,27,107.00,"",119,5749.0,0,"",26,"",0.0350,""
"GSWS07_119",2018-10-18 07:35:15,28,107.00,"",119,5749.0,0,"",27,"",0.0350,""
"GSWS07_119",2018-10-18 20:53:15,29,107.00,"",119,5749.0,0,"",28,"",0.0350,""
"GSWS07_119",2018-10-19 10:11:15,30,107.00,"",119,5749.0,0,"",29,"",0.0350,""
"GSWS07_119",2018-10-19 23:29:15,31,107.00,"",119,5749.0,0,"",30,"",0.0350,""
"GSWS07_119",2018-10-20 12:47:15,32,107.00,"",119,5749.0,0,"",31,"",0.0350,""
"GSWS07_119",2018-10-21 02:05:15,33,107.00,"",119,5749.0,0,"",32,"",0.0350,""
"GSWS07_119",2018-10-21 15:23:15,34,107.00,"",119,5749.0,0,"",33,"",0.0340,""
"GSWS07_119",2018-10-22 04:41:15,35,107.00,"",119,5749.0,0,"",34,"",0.0340,""
"GSWS07_119",2018-10-22 17:59:15,36,107.00,"",119,5749.0,0,"",35,"",0.0340,""
"GSWS07_119",2018-10-23 07:17:15,37,107.00,"",119,5749.0,0,"",36,"",0.0340,""
"GSWS07_119",2018-10-23 11:57:45,38,107.00,"",119,5749.0,0,"",37,"",0.0340,""
"GSWS07_119",2018-10-23 20:35:15,39,107.00,"",119,5749.0,0,"",1,"",0.0340,""
"GSWS07_119",2018-10-24 09:53:15,40,107.00,"",119,5749.0,0,"",2,"",0.0340,""
"GSWS07_119",2018-10-24 23:11:15,41,107.00,"",119,5749.0,0,"",3,"",0.0340,""
"GSWS07_119",2018-10-25 12:29:15,42,107.00,"",119,5749.0,0,"",4,"",0.0340,""
"GSWS07_119",2018-10-26 01:47:15,43,107.00,"",119,5749.0,0,"",5,"",0.0340,""
"GSWS07_119",2018-10-26 15:05:15,44,107.00,"",119,5749.0,0,"",6,"",0.0410,""
"GSWS07_119",2018-10-27 04:23:15,45,107.00,"",119,5749.0,0,"",7,"",0.0390,""
"GSWS07_119",2018-10-27 17:41:15,46,107.00,"",119,5749.0,0,"",8,"",0.0370,""
"GSWS07_119",2018-10-28 06:59:15,47,107.00,"",119,5749.0,0,"",9,"",0.0610,""
"GSWS07_119",2018-10-28 20:17:15,48,107.00,"",119,5749.0,0,"",10,"",0.0740,""
"GSWS07_119",2018-10-29 09:35:15,49,107.00,"",119,5749.0,0,"",11,"",0.0790,""
"GSWS07_119",2018-10-29 22:53:15,50,107.00,"",119,5749.0,0,"",12,"",0.0550,""
"GSWS07_119",2018-10-30 12:11:15,51,107.00,"",119,5749.0,0,"",13,"",0.0460,""
"GSWS07_119",2018-10-31 01:29:15,52,107.00,"",119,5749.0,0,"",14,"",0.0430,""
"GSWS07_119",2018-10-31 14:47:15,53,107.00,"",119,5749.0,0,"",15,"",0.0830,""
"GSWS07_119",2018-11-01 04:05:15,54,107.00,"",119,5749.0,0,"",16,"",0.0930,""
"GSWS07_119",2018-11-01 17:23:15,55,107.00,"",119,5749.0,0,"",17,"",0.0600,""
"GSWS07_119",2018-11-02 06:41:15,56,107.00,"",119,5749.0,0,"",18,"",0.0540,""
"GSWS07_119",2018-11-02 19:59:15,57,107.00,"",119,5749.0,0,"",19,"",0.0590,""
"GSWS07_119",2018-11-03 09:17:15,58,107.00,"",119,5749.0,0,"",20,"",0.0510,""
"GSWS07_119",2018-11-03 22:35:15,59,107.00,"",119,5749.0,0,"",21,"",0.0470,""
"GSWS07_119",2018-11-04 11:53:15,60,107.00,"",119,5749.0,0,"",22,"",0.0940,""
"GSWS07_119",2018-11-05 01:11:15,61,107.00,"",119,5749.0,0,"",23,"",0.0610,""
"GSWS07_119",2018-11-05 14:29:15,62,107.00,"",119,5749.0,0,"",24,"",0.0550,""
"GSWS07_119",2018-11-06 03:47:15,63,107.00,"",119,5749.0,0,"",25,"",0.0530,""
"GSWS07_119",2018-11-06 17:05:15,64,107.00,"",119,5749.0,0,"",26,"",0.0510,""
"GSWS07_119",2018-11-07 06:23:15,65,107.00,"",119,5749.0,0,"",27,"",0.0490,""
"GSWS07_119",2018-11-07 19:41:15,66,107.00,"",119,5749.0,0,"",28,"",0.0470,""
"GSWS07_119",2018-11-08 08:59:15,67,107.00,"",119,5749.0,0,"",29,"",0.0460,""
"GSWS07_119",2018-11-08 22:17:15,68,107.00,"",119,5749.0,0,"",30,"",0.0440,""
"GSWS07_119",2018-11-09 11:35:15,69,107.00,"",119,5749.0,0,"",31,"",0.0440,""
"GSWS07_119",2018-11-10 00:53:15,70,107.00,"",119,5749.0,0,"",32,"",0.0430,""
"GSWS07_119",2018-11-10 14:11:15,71,107.00,"",119,5749.0,0,"",33,"",0.0430,""
"GSWS07_119",2018-11-11 03:29:15,72,107.00,"",119,5749.0,0,"",34,"",0.0420,""
"GSWS07_119",2018-11-11 16:47:15,73,107.00,"",119,5749.0,0,"",35,"",0.0410,""
"GSWS07_119",2018-11-12 06:05:15,74,107.00,"",119,5749.0,0,"",36,"",0.0410,""
"GSWS07_119",2018-11-12 19:23:15,75,107.00,"",119,5749.0,0,"",37,"",0.0400,""
"GSWS07_119",2018-11-13 08:41:15,76,107.00,"",119,5749.0,0,"",38,"",0.0400,""
"GSWS07_119",2018-11-13 21:59:15,77,107.00,"",119,5749.0,0,"",39,"",0.0390,""
"GSWS07_119",2018-11-14 11:17:15,78,107.00,"",119,5749.0,0,"",40,"",0.0390,""
"GSWS07_119",2018-11-15 00:35:15,79,107.00,"",119,5749.0,0,"",1,"",0.0370,""
"GSWS07_119",2018-11-15 13:53:15,80,107.00,"",119,5749.0,0,"",2,"",0.0370,""
"GSWS07_119",2018-11-16 03:11:15,81,107.00,"",119,5749.0,0,"",3,"",0.0370,""
"GSWS07_119",2018-11-16 16:29:15,82,107.00,"",119,5749.0,0,"",4,"",0.0370,""
"GSWS07_119",2018-11-17 05:47:15,83,107.00,"",119,5749.0,0,"",5,"",0.0370,""
"GSWS07_119",2018-11-17 19:05:15,84,107.00,"",119,5749.0,0,"",6,"",0.0370,""
"GSWS07_119",2018-11-18 08:23:15,85,107.00,"",119,5749.0,0,"",7,"",0.0370,""
"GSWS07_119",2018-11-18 21:41:15,86,107.00,"",119,5749.0,0,"",8,"",0.0370,""
"GSWS07_119",2018-11-19 10:59:15,87,107.00,"",119,5749.0,0,"",9,"",0.0370,""
"GSWS07_119",2018-11-20 00:17:15,88,107.00,"",119,5749.0,0,"",10,"",0.0370,""
"GSWS07_119",2018-11-20 13:35:15,89,107.00,"",119,5749.0,0,"",11,"",0.0370,""
"GSWS07_119",2018-11-21 02:53:15,90,107.00,"",119,5749.0,0,"",12,"",0.0370,""
"GSWS07_119",2018-11-21 16:11:00,91,107.00,"",119,5749.0,0,"",13,"",0.0380,""
"GSWS07_119",2018-11-22 05:29:00,92,107.00,"",119,5749.0,0,"",14,"",0.0430,""
"GSWS07_119",2018-11-22 18:47:00,93,107.00,"",119,5749.0,0,"",15,"",0.0720,""
"GSWS07_119",2018-11-23 08:05:00,94,107.00,"",119,5749.0,0,"",16,"",0.0910,""
"GSWS07_119",2018-11-23 21:23:00,95,107.00,"",119,5749.0,0,"",17,"",0.1130,""
"GSWS07_119",2018-11-24 10:41:00,96,107.00,"",119,5749.0,0,"",18,"",0.0860,""
"GSWS07_119",2018-11-24 23:59:00,97,107.00,"",119,5749.0,0,"",19,"",0.0690,""
"GSWS07_119",2018-11-25 13:17:00,98,107.00,"",119,5749.0,0,"",20,"",0.0610,""
"GSWS07_119",2018-11-26 02:35:00,99,107.00,"",119,5749.0,0,"",21,"",0.0560,""
"GSWS07_119",2018-11-26 15:53:00,100,107.00,"",119,5749.0,0,"",22,"",0.0530,""
"GSWS07_119",2018-11-27 05:11:00,101,107.00,"",119,5749.0,0,"",23,"",0.1080,""
"GSWS07_119",2018-11-27 18:29:00,102,107.00,"",119,5749.0,0,"",24,"",0.1660,""
"GSWS07_119",2018-11-28 07:47:00,103,107.00,"",119,5749.0,0,"",25,"",0.1750,""
"GSWS07_119",2018-11-28 21:05:00,104,107.00,"",119,5749.0,0,"",26,"",0.1410,""
"GSWS07_119",2018-11-29 10:23:00,105,107.00,"",119,5749.0,0,"",27,"",0.1150,""
"GSWS07_119",2018-11-29 23:41:00,106,107.00,"",119,5749.0,0,"",28,"",0.0970,""
"GSWS07_119",2018-11-30 12:59:00,107,107.00,"",119,5749.0,0,"",29,"",0.1050,""
"GSWS07_119",2018-12-01 02:17:00,108,107.00,"",119,5749.0,0,"",30,"",0.1030,""
"GSWS07_119",2018-12-01 15:35:00,109,107.00,"",119,5749.0,0,"",31,"",0.0990,""
"GSWS07_119",2018-12-02 04:53:00,110,107.00,"",119,5749.0,0,"",32,"",0.0910,""
"GSWS07_119",2018-12-02 18:11:00,111,107.00,"",119,5749.0,0,"",33,"",0.0850,""
"GSWS07_119",2018-12-03 07:29:00,112,107.00,"",119,5749.0,0,"",34,"",0.0800,""
"GSWS07_119",2018-12-03 20:47:00,113,107.00,"",119,5749.0,0,"",35,"",0.0750,""
"GSWS07_119",2018-12-04 10:05:00,114,107.00,"",119,5749.0,0,"",36,"",0.0720,""
"GSWS07_119",2018-12-04 23:23:00,115,107.00,"",119,5749.0,0,"",37,"",0.0700,""
"GSWS07_119",2018-12-05 11:35:30,116,107.00,"",119,5749.0,0,"",38,"",0.0690,""
"GSWS07_119",2018-12-05 12:41:00,117,107.00,"",119,5749.0,0,"",1,"",0.0650,""
"GSWS07_119",2018-12-06 01:59:00,118,107.00,"",119,5749.0,0,"",2,"",0.0650,""
"GSWS07_119",2018-12-06 15:17:00,119,107.00,"",119,5749.0,0,"",3,"",0.0640,""
"GSWS07_119",2018-12-07 04:35:00,120,107.00,"",119,5749.0,0,"",4,"",0.0620,""
"GSWS07_119",2018-12-07 17:53:00,121,107.00,"",119,5749.0,0,"",5,"",0.0610,""
"GSWS07_119",2018-12-08 07:11:00,122,107.00,"",119,5749.0,0,"",6,"",0.0600,""
"GSWS07_119",2018-12-08 20:29:00,123,107.00,"",119,5749.0,0,"",7,"",0.0580,""
"GSWS07_119",2018-12-09 09:47:00,124,107.00,"",119,5749.0,0,"",8,"",0.0580,""
"GSWS07_119",2018-12-09 23:05:00,125,107.00,"",119,5749.0,0,"",9,"",0.0860,""
"GSWS07_119",2018-12-10 12:23:00,126,107.00,"",119,5749.0,0,"",10,"",0.1010,""
"GSWS07_119",2018-12-11 01:41:00,127,107.00,"",119,5749.0,0,"",11,"",0.1000,""
"GSWS07_119",2018-12-11 14:59:00,128,107.00,"",119,5749.0,0,"",12,"",0.1250,""
"GSWS07_119",2018-12-12 04:17:00,129,107.00,"",119,5749.0,0,"",13,"",0.2390,""
"GSWS07_119",2018-12-12 17:35:00,130,107.00,"",119,5749.0,0,"",14,"",0.1770,""
"GSWS07_119",2018-12-13 06:53:00,131,107.00,"",119,5749.0,0,"",15,"",0.1430,""
"GSWS07_119",2018-12-13 20:11:00,132,107.00,"",119,5749.0,0,"",16,"",0.1240,""
"GSWS07_119",2018-12-14 09:29:00,133,107.00,"",119,5749.0,0,"",17,"",0.1120,""
"GSWS07_119",2018-12-14 22:47:00,134,107.00,"",119,5749.0,0,"",18,"",0.1120,""
"GSWS07_119",2018-12-15 12:05:00,135,107.00,"",119,5749.0,0,"",19,"",0.1030,""
"GSWS07_119",2018-12-16 01:23:00,136,107.00,"",119,5749.0,0,"",20,"",0.0990,""
"GSWS07_119",2018-12-16 14:41:00,137,107.00,"",119,5749.0,0,"",21,"",0.1140,""
"GSWS07_119",2018-12-17 03:59:00,138,107.00,"",119,5749.0,0,"",22,"",0.1120,""
"GSWS07_119",2018-12-17 17:17:00,139,107.00,"",119,5749.0,0,"",23,"",0.1120,""
"GSWS07_119",2018-12-18 06:33:30,140,107.00,"",119,5749.0,0,"",24,"",0.3640,""
"GSWS07_119",2018-12-18 10:59:30,141,107.00,"",119,5749.0,0,"",25,"",0.6030,""
"GSWS07_119",2018-12-18 17:37:30,142,107.00,"",119,5749.0,0,"",26,"",0.4460,""
"GSWS07_119",2018-12-19 00:15:30,143,107.00,"",119,5749.0,0,"",27,"",0.3950,""
"GSWS07_119",2018-12-19 13:33:30,144,107.00,"",119,5749.0,0,"",28,"",0.3260,""
"GSWS07_119",2018-12-20 02:51:30,145,107.00,"",119,5749.0,0,"",29,"",0.2760,""
"GSWS07_119",2018-12-20 16:09:30,146,107.00,"",119,5749.0,0,"",30,"",0.2710,""
"GSWS07_119",2018-12-21 05:27:30,147,107.00,"",119,5749.0,0,"",31,"",0.2380,""
"GSWS07_119",2018-12-21 18:45:30,148,107.00,"",119,5749.0,0,"",32,"",0.2350,""
"GSWS07_119",2018-12-22 08:03:30,149,107.00,"",119,5749.0,0,"",33,"",0.2150,""
"GSWS07_119",2018-12-22 21:21:30,150,107.00,"",119,5749.0,0,"",34,"",0.2020,""
"GSWS07_119",2018-12-23 10:39:30,151,107.00,"",119,5749.0,0,"",35,"",0.2420,""
"GSWS07_119",2018-12-23 20:09:30,152,107.00,"",119,5749.0,0,"",36,"",0.3630,""
"GSWS07_119",2018-12-24 02:47:30,153,107.00,"",119,5749.0,0,"",37,"",0.4130,""
"GSWS07_119",2018-12-24 09:25:30,154,107.00,"",119,5749.0,0,"",38,"",0.4160,""
"GSWS07_119",2018-12-24 16:03:30,155,107.00,"",119,5749.0,0,"",39,"",0.4140,""
"GSWS07_119",2018-12-24 22:41:30,156,107.00,"",119,5749.0,0,"",40,"",0.4030,""
"GSWS07_119",2018-12-25 05:19:30,157,107.00,"",119,5749.0,0,"",41,"",0.3700,""
"GSWS07_119",2018-12-25 18:37:30,158,107.00,"",119,5749.0,0,"",42,"",0.3210,""
"GSWS07_119",2018-12-26 07:55:30,159,107.00,"",119,5749.0,0,"",43,"",0.2880,""
"GSWS07_119",2018-12-26 21:13:30,160,107.00,"",119,5749.0,0,"",44,"",0.2640,""
"GSWS07_119",2018-12-27 10:31:30,161,107.00,"",119,5749.0,0,"",45,"",0.2370,""
"GSWS07_119",2018-12-27 23:49:30,162,107.00,"",119,5749.0,0,"",46,"",0.2360,""
"GSWS07_119",2018-12-28 10:22:15,163,107.00,"",119,5749.0,0,"",47,"",0.2220,""
"GSWS07_119",2018-12-28 13:07:30,164,107.00,"",119,5749.0,0,"",1,"",0.2190,""
"GSWS07_119",2018-12-29 02:25:30,165,107.00,"",119,5749.0,0,"",2,"",0.2080,""
"GSWS07_119",2018-12-29 15:43:30,166,107.00,"",119,5749.0,0,"",3,"",0.2050,""
"GSWS07_119",2018-12-30 05:01:30,167,107.00,"",119,5749.0,0,"",4,"",0.2920,""
"GSWS07_119",2018-12-30 18:19:30,168,107.00,"",119,5749.0,0,"",5,"",0.2830,""
"GSWS07_119",2018-12-31 07:37:30,169,107.00,"",119,5749.0,0,"",6,"",0.2650,""
"GSWS07_119",2018-12-31 20:55:30,170,107.00,"",119,5749.0,0,"",7,"",0.2550,""
"GSWS07_119",2019-01-01 10:13:30,171,107.00,"",119,5749.0,0,"",8,"",0.2400,""
"GSWS07_119",2019-01-01 23:31:30,172,107.00,"",119,5749.0,0,"",9,"",0.2450,""
"GSWS07_119",2019-01-02 12:49:30,173,107.00,"",119,5749.0,0,"",10,"",0.2360,""
"GSWS07_119",2019-01-03 02:07:30,174,107.00,"",119,5749.0,0,"",11,"",0.2250,""
"GSWS07_119",2019-01-03 15:25:30,175,107.00,"",119,5749.0,0,"",12,"",0.2160,""
"GSWS07_119",2019-01-04 04:43:30,176,107.00,"",119,5749.0,0,"",13,"",0.2080,""
"GSWS07_119",2019-01-04 18:01:30,177,107.00,"",119,5749.0,0,"",14,"",0.2030,""
"GSWS07_119",2019-01-05 07:19:30,178,107.00,"",119,5749.0,0,"",15,"",0.1980,""
"GSWS07_119",2019-01-05 20:37:30,179,107.00,"",119,5749.0,0,"",16,"",0.1930,""
"GSWS07_119",2019-01-06 09:55:30,180,107.00,"",119,5749.0,0,"",17,"",0.1860,""
"GSWS07_119",2019-01-06 23:13:30,181,107.00,"",119,5749.0,0,"",18,"",0.1800,""
"GSWS07_119",2019-01-07 12:31:30,182,107.00,"",119,5749.0,0,"",19,"",0.1750,""
"GSWS07_119",2019-01-08 01:49:30,183,107.00,"",119,5749.0,0,"",20,"",0.1730,""
"GSWS07_119",2019-01-08 15:07:30,184,107.00,"",119,5749.0,0,"",21,"",0.1900,""
"GSWS07_119",2019-01-09 04:25:30,185,107.00,"",119,5749.0,0,"",22,"",0.2080,""
"GSWS07_119",2019-01-09 17:43:30,186,107.00,"",119,5749.0,0,"",23,"",0.2160,""
"GSWS07_119",2019-01-10 07:01:30,187,107.00,"",119,5749.0,0,"",24,"",0.2340,""
"GSWS07_119",2019-01-10 20:19:30,188,107.00,"",119,5749.0,0,"",25,"",0.2230,""
"GSWS07_119",2019-01-11 09:37:30,189,107.00,"",119,5749.0,0,"",26,"",0.2130,""
"GSWS07_119",2019-01-11 22:55:30,190,107.00,"",119,5749.0,0,"",27,"",0.2050,""
"GSWS07_119",2019-01-12 12:13:30,191,107.00,"",119,5749.0,0,"",28,"",0.1980,""
"GSWS07_119",2019-01-13 01:31:30,192,107.00,"",119,5749.0,0,"",29,"",0.1900,""
"GSWS07_119",2019-01-13 14:49:30,193,107.00,"",119,5749.0,0,"",30,"",0.1830,""
"GSWS07_119",2019-01-14 04:07:30,194,107.00,"",119,5749.0,0,"",31,"",0.1780,""
"GSWS07_119",2019-01-14 17:25:30,195,107.00,"",119,5749.0,0,"",32,"",0.1760,""
"GSWS07_119",2019-01-15 06:43:30,196,107.00,"",119,5749.0,0,"",33,"",0.1730,""
"GSWS07_119",2019-01-15 15:50:45,197,107.00,"",119,5749.0,0,"",34,"",0.1700,""
"GSWS07_119",2019-01-15 20:01:30,198,107.00,"",119,5749.0,0,"",1,"",0.1660,""
"GSWS07_119",2019-01-16 09:19:30,199,107.00,"",119,5749.0,0,"",2,"",0.1640,""
"GSWS07_119",2019-01-16 22:37:30,200,107.00,"",119,5749.0,0,"",3,"",0.1620,""
"GSWS07_119",2019-01-17 11:55:30,201,107.00,"",119,5749.0,0,"",4,"",0.1590,""
"GSWS07_119",2019-01-18 01:13:30,202,107.00,"",119,5749.0,0,"",5,"",0.1580,""
"GSWS07_119",2019-01-18 14:31:30,203,107.00,"",119,5749.0,0,"",6,"",0.1560,""
"GSWS07_119",2019-01-18 23:10:00,204,107.00,"",119,5749.0,0,"",7,"",0.3630,""
"GSWS07_119",2019-01-19 05:48:00,205,107.00,"",119,5749.0,0,"",8,"",0.4860,""
"GSWS07_119",2019-01-19 12:26:00,206,107.00,"",119,5749.0,0,"",9,"",0.4680,""
"GSWS07_119",2019-01-19 19:04:00,207,107.00,"",119,5749.0,0,"",10,"",0.4620,""
"GSWS07_119",2019-01-20 01:42:00,208,107.00,"",119,5749.0,0,"",11,"",0.4540,""
"GSWS07_119",2019-01-20 08:20:00,209,107.00,"",119,5749.0,0,"",12,"",0.4540,""
"GSWS07_119",2019-01-20 14:58:00,210,107.00,"",119,5749.0,0,"",13,"",0.4360,""
"GSWS07_119",2019-01-20 21:36:00,211,107.00,"",119,5749.0,0,"",14,"",0.4170,""
"GSWS07_119",2019-01-21 04:14:00,212,107.00,"",119,5749.0,0,"",15,"",0.4090,""
"GSWS07_119",2019-01-21 10:52:00,213,107.00,"",119,5749.0,0,"",16,"",0.3790,""
"GSWS07_119",2019-01-22 00:10:00,214,107.00,"",119,5749.0,0,"",17,"",0.3410,""
"GSWS07_119",2019-01-22 13:28:00,215,107.00,"",119,5749.0,0,"",18,"",0.3100,""
"GSWS07_119",2019-01-23 02:46:00,216,107.00,"",119,5749.0,0,"",19,"",0.3210,""
"GSWS07_119",2019-01-23 16:04:00,217,107.00,"",119,5749.0,0,"",20,"",0.3270,""
"GSWS07_119",2019-01-24 05:22:00,218,107.00,"",119,5749.0,0,"",21,"",0.3060,""
"GSWS07_119",2019-01-24 18:40:00,219,107.00,"",119,5749.0,0,"",22,"",0.2950,""
"GSWS07_119",2019-01-25 07:58:00,220,107.00,"",119,5749.0,0,"",23,"",0.2870,""
"GSWS07_119",2019-01-25 21:16:00,221,107.00,"",119,5749.0,0,"",24,"",0.2780,""
"GSWS07_119",2019-01-26 10:34:00,222,107.00,"",119,5749.0,0,"",25,"",0.2610,""
"GSWS07_119",2019-01-26 23:52:00,223,107.00,"",119,5749.0,0,"",26,"",0.2390,""
"GSWS07_119",2019-01-27 13:10:00,224,107.00,"",119,5749.0,0,"",27,"",0.2270,""
"GSWS07_119",2019-01-28 02:28:00,225,107.00,"",119,5749.0,0,"",28,"",0.2340,""
"GSWS07_119",2019-01-28 15:46:00,226,107.00,"",119,5749.0,0,"",29,"",0.2220,""
"GSWS07_119",2019-01-29 05:04:00,227,107.00,"",119,5749.0,0,"",30,"",0.2140,""
"GSWS07_119",2019-01-29 18:22:00,228,107.00,"",119,5749.0,0,"",31,"",0.2050,""
"GSWS07_119",2019-01-30 07:40:00,229,107.00,"",119,5749.0,0,"",32,"",0.1980,""
"GSWS07_119",2019-01-30 20:58:00,230,107.00,"",119,5749.0,0,"",33,"",0.1910,""
"GSWS07_119",2019-01-31 10:16:00,231,107.00,"",119,5749.0,0,"",34,"",0.1840,""
"GSWS07_119",2019-01-31 23:34:00,232,107.00,"",119,5749.0,0,"",35,"",0.1780,""
"GSWS07_119",2019-02-01 12:52:00,233,107.00,"",119,5749.0,0,"",36,"",0.1750,""
"GSWS07_119",2019-02-02 02:10:00,234,107.00,"",119,5749.0,0,"",37,"",0.1750,""
"GSWS07_119",2019-02-02 15:28:00,235,107.00,"",119,5749.0,0,"",38,"",0.1710,""
"GSWS07_119",2019-02-03 04:46:00,236,107.00,"",119,5749.0,0,"",39,"",0.1870,""
"GSWS07_119",2019-02-03 18:04:00,237,107.00,"",119,5749.0,0,"",40,"",0.1780,""
"GSWS07_119",2019-02-04 07:22:00,238,107.00,"",119,5749.0,0,"",41,"",0.1760,""
"GSWS07_119",2019-02-04 20:40:00,239,107.00,"",119,5749.0,0,"",42,"",0.1690,""
"GSWS07_119",2019-02-05 09:58:00,240,107.00,"",119,5749.0,0,"",43,"",0.1630,""
"GSWS07_119",2019-02-05 23:16:00,241,107.00,"",119,5749.0,0,"",44,"",0.1580,""
"GSWS07_119",2019-02-06 12:34:00,242,107.00,"",119,5749.0,0,"",45,"",0.1540,""
"GSWS07_119",2019-02-06 14:36:15,243,107.00,"",119,5749.0,0,"",46,"",0.1540,""
"GSWS07_119",2019-02-07 01:52:00,244,107.00,"",119,5749.0,0,"",1,"",0.1510,""
"GSWS07_119",2019-02-07 15:10:00,245,107.00,"",119,5749.0,0,"",2,"",0.1490,""
"GSWS07_119",2019-02-08 04:28:00,246,107.00,"",119,5749.0,0,"",3,"",0.1480,""
"GSWS07_119",2019-02-08 17:46:00,247,107.00,"",119,5749.0,0,"",4,"",0.1470,""
"GSWS07_119",2019-02-09 07:04:00,248,107.00,"",119,5749.0,0,"",5,"",0.1460,""
"GSWS07_119",2019-02-09 20:22:00,249,107.00,"",119,5749.0,0,"",6,"",0.1470,""
"GSWS07_119",2019-02-11 12:16:00,250,107.00,"",119,5749.0,0,"",7,"",0.1410,""
"GSWS07_119",2019-02-12 01:34:00,251,107.00,"",119,5749.0,0,"",8,"",0.1370,""
"GSWS07_119",2019-02-12 14:52:00,252,107.00,"",119,5749.0,0,"",9,"",0.1390,""
"GSWS07_119",2019-02-13 04:10:00,253,107.00,"",119,5749.0,0,"",10,"",0.1380,""
"GSWS07_119",2019-02-13 17:28:00,254,107.00,"",119,5749.0,0,"",11,"",0.1480,""
"GSWS07_119",2019-02-14 06:46:00,255,107.00,"",119,5749.0,0,"",12,"",0.1600,""
"GSWS07_119",2019-02-14 20:04:00,256,107.00,"",119,5749.0,0,"",13,"",0.1880,""
"GSWS07_119",2019-02-15 09:22:00,257,107.00,"",119,5749.0,0,"",14,"",0.1770,""
"GSWS07_119",2019-02-15 22:40:00,258,107.00,"",119,5749.0,0,"",15,"",0.1710,""
"GSWS07_119",2019-02-16 11:58:00,259,107.00,"",119,5749.0,0,"",16,"",0.1620,""
"GSWS07_119",2019-02-17 01:16:00,260,107.00,"",119,5749.0,0,"",17,"",0.1580,""
"GSWS07_119",2019-02-17 14:34:00,261,107.00,"",119,5749.0,0,"",18,"",0.1540,""
"GSWS07_119",2019-02-18 03:52:00,262,107.00,"",119,5749.0,0,"",19,"",0.1510,""
"GSWS07_119",2019-02-18 17:10:00,263,107.00,"",119,5749.0,0,"",20,"",0.1480,""
"GSWS07_119",2019-02-19 06:28:00,264,107.00,"",119,5749.0,0,"",21,"",0.1460,""
"GSWS07_119",2019-02-19 19:46:00,265,107.00,"",119,5749.0,0,"",22,"",0.1460,""
"GSWS07_119",2019-02-20 09:04:00,266,107.00,"",119,5749.0,0,"",23,"",0.1460,""
"GSWS07_119",2019-02-20 22:22:00,267,107.00,"",119,5749.0,0,"",24,"",0.1460,""
"GSWS07_119",2019-02-22 00:58:00,268,107.00,"",119,5749.0,0,"",25,"",0.1410,""
"GSWS07_119",2019-02-22 14:16:00,269,107.00,"",119,5749.0,0,"",26,"",0.1410,""
"GSWS07_119",2019-02-23 03:34:00,270,107.00,"",119,5749.0,0,"",27,"",0.1400,""
"GSWS07_119",2019-02-23 16:52:00,271,107.00,"",119,5749.0,0,"",28,"",0.1380,""
"GSWS07_119",2019-02-24 06:10:00,272,107.00,"",119,5749.0,0,"",29,"",0.1390,""
"GSWS07_119",2019-02-24 19:28:00,273,107.00,"",119,5749.0,0,"",30,"",0.1360,""
"GSWS07_119",2019-02-25 08:46:00,274,107.00,"",119,5749.0,0,"",31,"",0.1400,""
"GSWS07_119",2019-02-25 22:04:00,275,107.00,"",119,5749.0,0,"",32,"",0.1370,""
"GSWS07_119",2019-02-27 13:58:00,276,107.00,"",119,5749.0,0,"",33,"",0.1330,""
"GSWS07_119",2019-02-28 03:16:00,277,107.00,"",119,5749.0,0,"",34,"",0.1320,""
"GSWS07_119",2019-02-28 16:34:00,278,107.00,"",119,5749.0,0,"",35,"",0.1310,""
"GSWS07_119",2019-03-01 05:52:00,279,107.00,"",119,5749.0,0,"",36,"",0.1290,""
"GSWS07_119",2019-03-01 19:10:00,280,107.00,"",119,5749.0,0,"",37,"",0.1300,""
"GSWS07_119",2019-03-02 08:28:00,281,107.00,"",119,5749.0,0,"",38,"",0.1300,""
"GSWS07_119",2019-03-02 21:46:00,282,107.00,"",119,5749.0,0,"",39,"",0.1290,""
"GSWS07_119",2019-03-03 11:04:00,283,107.00,"",119,5749.0,0,"",40,"",0.1290,""
"GSWS07_119",2019-03-04 00:22:00,284,107.00,"",119,5749.0,0,"",41,"",0.1270,""
"GSWS07_119",2019-03-04 13:40:00,285,107.00,"",119,5749.0,0,"",42,"",0.1270,""
"GSWS07_119",2019-03-05 02:58:00,286,107.00,"",119,5749.0,0,"",43,"",0.1260,""
"GSWS07_119",2019-03-05 16:16:00,287,107.00,"",119,5749.0,0,"",44,"",0.1260,""
"GSWS07_119",2019-03-06 05:34:00,288,107.00,"",119,5749.0,0,"",45,"",0.1260,""